Location: Trebic
(49.2170°N, 15.8830°E)
Time: 00:42:48
(UTC+02:00)

Transit 4A - Pass Details

Date: 25 August 2019
Orbit: 865 x 980 km, 66.8° (Epoch: 15 September)

Event Time Altitude Azimuth Distance (km) Brightness Sun altitude
Rises 18:34:17 0° 208° (SSW) 3,663 11.4 12.0°
Reaches altitude 10° 18:36:50 10° 207° (SSW) 2,723 10.7 11.6°
Maximum altitude 18:43:14 79° 122° (ESE) 1,002 8.2 10.6°
Drops below altitude 10° 18:49:37 10° 38° (NE) 2,721 10.1 9.5°
Sets 18:52:10 0° 37° (NE) 3,660 10.7 9.1°
